This is the latest recevied weather packets stored in our database for station/object C31FR-13. If no packets are shown the sender has not sent any weather packets the latest 10 day(s).
| Time | Temp. | Humidity | Pressure | Rain* | Wind** | Luminosity | Snow |
|---|---|---|---|---|---|---|---|
| 1777971962 | 12.22° C | 73% | 1012 hPa | - | - | - | - |
| 1777971662 | 11.67° C | 71% | 1012.2 hPa | - | - | - | - |
| 1777971362 | 11.67° C | 74% | 1012.1 hPa | - | - | - | - |
| 1777970462 | 11.11° C | 72% | 1012.3 hPa | - | - | - | - |
| 1777970163 | 11.11° C | 71% | 1012.4 hPa | - | - | - | - |
| 1777969862 | 11.11° C | 73% | 1012.5 hPa | - | - | - | - |
| 1777969561 | 10° C | 76% | 1012.5 hPa | - | - | - | - |
| 1777969263 | 10° C | 76% | 1012.5 hPa | - | - | - | - |
| 1777968962 | 10° C | 76% | 1012.6 hPa | - | - | - | - |
| 1777968662 | 9.44° C | 78% | 1012.6 hPa | - | - | - | - |
| 1777968363 | 9.44° C | 79% | 1012.6 hPa | - | - | - | - |
| 1777968063 | 10° C | 77% | 1012.6 hPa | - | - | - | - |
| 1777967762 | 10° C | 79% | 1012.5 hPa | - | - | - | - |
| 1777967462 | 10° C | 80% | 1012.5 hPa | - | - | - | - |
| 1777967163 | 10° C | 80% | 1012.5 hPa | - | - | - | - |
| 1777966862 | 10° C | 80% | 1012.5 hPa | - | - | - | - |
| 1777966262 | 10.56° C | 71% | 1012.5 hPa | - | - | - | - |
| 1777965663 | 10.56° C | 78% | 1012.5 hPa | - | - | - | - |
| 1777965363 | 10.56° C | 80% | 1012.5 hPa | - | - | - | - |
| 1777965063 | 10.56° C | 79% | 1012.6 hPa | - | - | - | - |
| 1777964763 | 10° C | 86% | 1012.6 hPa | - | - | - | - |
| 1777964462 | 10° C | 85% | 1012.6 hPa | - | - | - | - |
| 1777964163 | 10.56° C | 83% | 1012.6 hPa | - | - | - | - |
| 1777963562 | 10° C | 80% | 1012.7 hPa | - | - | - | - |
| 1777963263 | 9.44° C | 81% | 1012.8 hPa | - | - | - | - |
* Rain since midnight (hover to see other rain measurements)
** Current wind speed in m/s (hover to see current wind gust speed)